#datetime,building,power
2022-04-16T00:00:00,mfh,69.12
2022-04-16T00:01:00,mfh,69.26
2022-04-16T00:02:00,mfh,68.85
2022-04-16T00:03:00,mfh,67.72
2022-04-16T00:04:00,mfh,66.62
2022-04-16T00:05:00,mfh,66.39
2022-04-16T00:06:00,mfh,66.20
2022-04-16T00:07:00,mfh,65.95
2022-04-16T00:08:00,mfh,65.84
2022-04-16T00:09:00,mfh,66.28
2022-04-16T00:10:00,mfh,66.26
2022-04-16T00:11:00,mfh,66.00
2022-04-16T00:12:00,mfh,58.69
2022-04-16T00:13:00,mfh,45.23
2022-04-16T00:14:00,mfh,39.52
2022-04-16T00:15:00,mfh,39.93
2022-04-16T00:16:00,mfh,39.69
2022-04-16T00:17:00,mfh,40.40
2022-04-16T00:18:00,mfh,40.76
2022-04-16T00:19:00,mfh,40.88
2022-04-16T00:20:00,mfh,41.36
2022-04-16T00:21:00,mfh,40.35
2022-04-16T00:22:00,mfh,40.55
2022-04-16T00:23:00,mfh,40.61
2022-04-16T00:24:00,mfh,40.75
2022-04-16T00:25:00,mfh,41.91
2022-04-16T00:26:00,mfh,41.55
2022-04-16T00:27:00,mfh,41.62
2022-04-16T00:28:00,mfh,42.31
2022-04-16T00:29:00,mfh,41.27
2022-04-16T00:30:00,mfh,40.73
2022-04-16T00:31:00,mfh,40.65
2022-04-16T00:32:00,mfh,40.78
2022-04-16T00:33:00,mfh,40.78
2022-04-16T00:34:00,mfh,41.45
2022-04-16T00:35:00,mfh,41.52
2022-04-16T00:36:00,mfh,41.61
2022-04-16T00:37:00,mfh,41.56
2022-04-16T00:38:00,mfh,40.87
2022-04-16T00:39:00,mfh,40.88
2022-04-16T00:40:00,mfh,40.87
2022-04-16T00:41:00,mfh,40.82
2022-04-16T00:42:00,mfh,41.59
2022-04-16T00:43:00,mfh,43.06
2022-04-16T00:44:00,mfh,43.35
2022-04-16T00:45:00,mfh,43.48
2022-04-16T00:46:00,mfh,42.79
2022-04-16T00:47:00,mfh,41.03
2022-04-16T00:48:00,mfh,41.05
2022-04-16T00:49:00,mfh,41.13
2022-04-16T00:50:00,mfh,41.76
2022-04-16T00:51:00,mfh,42.03
2022-04-16T00:52:00,mfh,42.47
2022-04-16T00:53:00,mfh,41.68
2022-04-16T00:54:00,mfh,41.40
2022-04-16T00:55:00,mfh,40.80
2022-04-16T00:56:00,mfh,40.80
2022-04-16T00:57:00,mfh,40.81
2022-04-16T00:58:00,mfh,41.43
2022-04-16T00:59:00,mfh,41.51
2022-04-16T01:00:00,mfh,42.10
2022-04-16T01:01:00,mfh,41.52
2022-04-16T01:02:00,mfh,40.84
2022-04-16T01:03:00,mfh,41.32
2022-04-16T01:04:00,mfh,40.88
2022-04-16T01:05:00,mfh,40.88
2022-04-16T01:06:00,mfh,41.87
2022-04-16T01:07:00,mfh,41.55
2022-04-16T01:08:00,mfh,41.54
2022-04-16T01:09:00,mfh,41.56
2022-04-16T01:10:00,mfh,41.71
2022-04-16T01:11:00,mfh,41.07
2022-04-16T01:12:00,mfh,41.06
2022-04-16T01:13:00,mfh,41.06
2022-04-16T01:14:00,mfh,41.05
2022-04-16T01:15:00,mfh,41.64
2022-04-16T01:16:00,mfh,41.72
2022-04-16T01:17:00,mfh,41.70
2022-04-16T01:18:00,mfh,41.69
2022-04-16T01:19:00,mfh,41.03
2022-04-16T01:20:00,mfh,41.94
2022-04-16T01:21:00,mfh,40.97
2022-04-16T01:22:00,mfh,40.76
2022-04-16T01:23:00,mfh,40.75
2022-04-16T01:24:00,mfh,41.53
2022-04-16T01:25:00,mfh,41.46
2022-04-16T01:26:00,mfh,41.47
2022-04-16T01:27:00,mfh,41.55
2022-04-16T01:28:00,mfh,40.94
2022-04-16T01:29:00,mfh,42.10
2022-04-16T01:30:00,mfh,41.01
2022-04-16T01:31:00,mfh,41.15
2022-04-16T01:32:00,mfh,41.77
2022-04-16T01:33:00,mfh,41.64
2022-04-16T01:34:00,mfh,41.67
2022-04-16T01:35:00,mfh,41.58
2022-04-16T01:36:00,mfh,41.07
2022-04-16T01:37:00,mfh,41.12
2022-04-16T01:38:00,mfh,41.16
2022-04-16T01:39:00,mfh,41.24
2022-04-16T01:40:00,mfh,42.10
2022-04-16T01:41:00,mfh,41.78
2022-04-16T01:42:00,mfh,41.89
2022-04-16T01:43:00,mfh,43.20
2022-04-16T01:44:00,mfh,41.96
2022-04-16T01:45:00,mfh,41.33
2022-04-16T01:46:00,mfh,41.31
2022-04-16T01:47:00,mfh,41.29
2022-04-16T01:48:00,mfh,40.95
2022-04-16T01:49:00,mfh,41.69
2022-04-16T01:50:00,mfh,41.67
2022-04-16T01:51:00,mfh,41.89
2022-04-16T01:52:00,mfh,41.72
2022-04-16T01:53:00,mfh,41.02
2022-04-16T01:54:00,mfh,41.71
2022-04-16T01:55:00,mfh,41.12
2022-04-16T01:56:00,mfh,41.18
2022-04-16T01:57:00,mfh,42.16
2022-04-16T01:58:00,mfh,41.78
2022-04-16T01:59:00,mfh,41.81
2022-04-16T02:00:00,mfh,41.94
2022-04-16T02:01:00,mfh,41.90
2022-04-16T02:02:00,mfh,41.18
2022-04-16T02:03:00,mfh,41.55
2022-04-16T02:04:00,mfh,41.37
2022-04-16T02:05:00,mfh,41.35
2022-04-16T02:06:00,mfh,41.98
2022-04-16T02:07:00,mfh,41.99
2022-04-16T02:08:00,mfh,42.12
2022-04-16T02:09:00,mfh,42.12
2022-04-16T02:10:00,mfh,41.51
2022-04-16T02:11:00,mfh,41.57
2022-04-16T02:12:00,mfh,41.97
2022-04-16T02:13:00,mfh,41.56
2022-04-16T02:14:00,mfh,42.27
2022-04-16T02:15:00,mfh,42.59
2022-04-16T02:16:00,mfh,42.02
2022-04-16T02:17:00,mfh,42.89
2022-04-16T02:18:00,mfh,41.34
2022-04-16T02:19:00,mfh,41.41
2022-04-16T02:20:00,mfh,41.43
2022-04-16T02:21:00,mfh,41.47
2022-04-16T02:22:00,mfh,41.96
2022-04-16T02:23:00,mfh,42.09
2022-04-16T02:24:00,mfh,42.07
2022-04-16T02:25:00,mfh,42.22
2022-04-16T02:26:00,mfh,41.43
2022-04-16T02:27:00,mfh,41.87
2022-04-16T02:28:00,mfh,42.00
2022-04-16T02:29:00,mfh,41.36
2022-04-16T02:30:00,mfh,42.22
2022-04-16T02:31:00,mfh,42.99
2022-04-16T02:32:00,mfh,43.00
2022-04-16T02:33:00,mfh,43.05
2022-04-16T02:34:00,mfh,43.10
2022-04-16T02:35:00,mfh,41.55
2022-04-16T02:36:00,mfh,41.86
2022-04-16T02:37:00,mfh,41.49
2022-04-16T02:38:00,mfh,41.52
2022-04-16T02:39:00,mfh,42.22
2022-04-16T02:40:00,mfh,42.47
2022-04-16T02:41:00,mfh,42.22
2022-04-16T02:42:00,mfh,43.07
2022-04-16T02:43:00,mfh,41.51
2022-04-16T02:44:00,mfh,41.49
2022-04-16T02:45:00,mfh,41.49
2022-04-16T02:46:00,mfh,41.49
2022-04-16T02:47:00,mfh,42.11
2022-04-16T02:48:00,mfh,42.06
2022-04-16T02:49:00,mfh,42.06
2022-04-16T02:50:00,mfh,42.75
2022-04-16T02:51:00,mfh,42.02
2022-04-16T02:52:00,mfh,41.41
2022-04-16T02:53:00,mfh,41.40
2022-04-16T02:54:00,mfh,41.47
2022-04-16T02:55:00,mfh,41.67
2022-04-16T02:56:00,mfh,42.27
2022-04-16T02:57:00,mfh,42.38
2022-04-16T02:58:00,mfh,42.39
2022-04-16T02:59:00,mfh,42.41
2022-04-16T03:00:00,mfh,42.39
2022-04-16T03:01:00,mfh,41.77
2022-04-16T03:02:00,mfh,42.59
2022-04-16T03:03:00,mfh,42.77
2022-04-16T03:04:00,mfh,42.49
2022-04-16T03:05:00,mfh,43.17
2022-04-16T03:06:00,mfh,42.54
2022-04-16T03:07:00,mfh,42.37
2022-04-16T03:08:00,mfh,42.19
2022-04-16T03:09:00,mfh,41.59
2022-04-16T03:10:00,mfh,41.57
2022-04-16T03:11:00,mfh,41.54
2022-04-16T03:12:00,mfh,42.29
2022-04-16T03:13:00,mfh,42.36
2022-04-16T03:14:00,mfh,42.84
2022-04-16T03:15:00,mfh,42.41
2022-04-16T03:16:00,mfh,41.61
2022-04-16T03:17:00,mfh,41.69
2022-04-16T03:18:00,mfh,41.54
2022-04-16T03:19:00,mfh,41.60
2022-04-16T03:20:00,mfh,42.25
2022-04-16T03:21:00,mfh,42.52
2022-04-16T03:22:00,mfh,42.50
2022-04-16T03:23:00,mfh,42.53
2022-04-16T03:24:00,mfh,43.60
2022-04-16T03:25:00,mfh,41.81
2022-04-16T03:26:00,mfh,41.85
2022-04-16T03:27:00,mfh,41.84
2022-04-16T03:28:00,mfh,41.85
2022-04-16T03:29:00,mfh,42.55
2022-04-16T03:30:00,mfh,42.51
2022-04-16T03:31:00,mfh,42.49
2022-04-16T03:32:00,mfh,42.59
2022-04-16T03:33:00,mfh,42.59
2022-04-16T03:34:00,mfh,41.75
2022-04-16T03:35:00,mfh,41.75
2022-04-16T03:36:00,mfh,41.75
2022-04-16T03:37:00,mfh,41.67
2022-04-16T03:38:00,mfh,42.33
2022-04-16T03:39:00,mfh,42.28
2022-04-16T03:40:00,mfh,43.50
2022-04-16T03:41:00,mfh,42.88
2022-04-16T03:42:00,mfh,42.24
2022-04-16T03:43:00,mfh,42.35
2022-04-16T03:44:00,mfh,41.74
2022-04-16T03:45:00,mfh,42.10
2022-04-16T03:46:00,mfh,42.26
2022-04-16T03:47:00,mfh,42.40
2022-04-16T03:48:00,mfh,43.18
2022-04-16T03:49:00,mfh,42.96
2022-04-16T03:50:00,mfh,41.94
2022-04-16T03:51:00,mfh,41.84
2022-04-16T03:52:00,mfh,42.50
2022-04-16T03:53:00,mfh,41.83
2022-04-16T03:54:00,mfh,42.46
2022-04-16T03:55:00,mfh,42.37
2022-04-16T03:56:00,mfh,42.79
2022-04-16T03:57:00,mfh,42.71
2022-04-16T03:58:00,mfh,42.21
2022-04-16T03:59:00,mfh,41.54
2022-04-16T04:00:00,mfh,41.36
2022-04-16T04:01:00,mfh,41.54
2022-04-16T04:02:00,mfh,42.21
2022-04-16T04:03:00,mfh,42.17
2022-04-16T04:04:00,mfh,42.21
2022-04-16T04:05:00,mfh,42.10
2022-04-16T04:06:00,mfh,42.16
2022-04-16T04:07:00,mfh,41.44
2022-04-16T04:08:00,mfh,41.48
2022-04-16T04:09:00,mfh,41.39
2022-04-16T04:10:00,mfh,41.44
2022-04-16T04:11:00,mfh,42.34
2022-04-16T04:12:00,mfh,42.14
2022-04-16T04:13:00,mfh,42.17
2022-04-16T04:14:00,mfh,42.29
2022-04-16T04:15:00,mfh,42.54
2022-04-16T04:16:00,mfh,41.96
2022-04-16T04:17:00,mfh,42.35
2022-04-16T04:18:00,mfh,42.37
2022-04-16T04:19:00,mfh,42.61
2022-04-16T04:20:00,mfh,42.90
2022-04-16T04:21:00,mfh,42.50
2022-04-16T04:22:00,mfh,42.70
2022-04-16T04:23:00,mfh,42.69
2022-04-16T04:24:00,mfh,41.97
2022-04-16T04:25:00,mfh,41.97
2022-04-16T04:26:00,mfh,41.79
2022-04-16T04:27:00,mfh,41.75
2022-04-16T04:28:00,mfh,42.44
2022-04-16T04:29:00,mfh,42.45
2022-04-16T04:30:00,mfh,42.87
2022-04-16T04:31:00,mfh,42.50
2022-04-16T04:32:00,mfh,41.70
2022-04-16T04:33:00,mfh,41.70
2022-04-16T04:34:00,mfh,41.71
2022-04-16T04:35:00,mfh,41.74
2022-04-16T04:36:00,mfh,42.64
2022-04-16T04:37:00,mfh,42.46
2022-04-16T04:38:00,mfh,42.66
2022-04-16T04:39:00,mfh,42.55
2022-04-16T04:40:00,mfh,41.79
2022-04-16T04:41:00,mfh,42.09
2022-04-16T04:42:00,mfh,42.14
2022-04-16T04:43:00,mfh,42.18
2022-04-16T04:44:00,mfh,42.19
2022-04-16T04:45:00,mfh,43.26
2022-04-16T04:46:00,mfh,42.88
2022-04-16T04:47:00,mfh,42.88
2022-04-16T04:48:00,mfh,43.34
2022-04-16T04:49:00,mfh,42.97
2022-04-16T04:50:00,mfh,42.63
2022-04-16T04:51:00,mfh,42.36
2022-04-16T04:52:00,mfh,42.34
2022-04-16T04:53:00,mfh,42.68
2022-04-16T04:54:00,mfh,42.73
2022-04-16T04:55:00,mfh,43.42
2022-04-16T04:56:00,mfh,43.33
2022-04-16T04:57:00,mfh,42.18
2022-04-16T04:58:00,mfh,42.18
2022-04-16T04:59:00,mfh,42.00
2022-04-16T05:00:00,mfh,41.94
2022-04-16T05:01:00,mfh,60.95
2022-04-16T05:02:00,mfh,61.16
2022-04-16T05:03:00,mfh,61.25
2022-04-16T05:04:00,mfh,61.81
2022-04-16T05:05:00,mfh,61.22
2022-04-16T05:06:00,mfh,60.50
2022-04-16T05:07:00,mfh,60.59
2022-04-16T05:08:00,mfh,60.72
2022-04-16T05:09:00,mfh,61.26
2022-04-16T05:10:00,mfh,61.97
2022-04-16T05:11:00,mfh,61.89
2022-04-16T05:12:00,mfh,61.99
2022-04-16T05:13:00,mfh,61.86
2022-04-16T05:14:00,mfh,61.31
2022-04-16T05:15:00,mfh,62.30
2022-04-16T05:16:00,mfh,61.09
2022-04-16T05:17:00,mfh,61.07
2022-04-16T05:18:00,mfh,61.75
2022-04-16T05:19:00,mfh,61.43
2022-04-16T05:20:00,mfh,61.64
2022-04-16T05:21:00,mfh,61.56
2022-04-16T05:22:00,mfh,61.54
2022-04-16T05:23:00,mfh,61.07
2022-04-16T05:24:00,mfh,62.24
2022-04-16T05:25:00,mfh,61.52
2022-04-16T05:26:00,mfh,61.58
2022-04-16T05:27:00,mfh,61.79
2022-04-16T05:28:00,mfh,60.96
2022-04-16T05:29:00,mfh,61.02
2022-04-16T05:30:00,mfh,60.85
2022-04-16T05:31:00,mfh,60.48
2022-04-16T05:32:00,mfh,60.17
2022-04-16T05:33:00,mfh,60.18
2022-04-16T05:34:00,mfh,61.12
2022-04-16T05:35:00,mfh,61.12
2022-04-16T05:36:00,mfh,60.97
2022-04-16T05:37:00,mfh,61.10
2022-04-16T05:38:00,mfh,61.66
2022-04-16T05:39:00,mfh,60.32
2022-04-16T05:40:00,mfh,60.31
2022-04-16T05:41:00,mfh,60.70
2022-04-16T05:42:00,mfh,60.29
2022-04-16T05:43:00,mfh,60.26
2022-04-16T05:44:00,mfh,61.46
2022-04-16T05:45:00,mfh,61.03
2022-04-16T05:46:00,mfh,60.87
2022-04-16T05:47:00,mfh,61.07
2022-04-16T05:48:00,mfh,60.37
2022-04-16T05:49:00,mfh,60.69
2022-04-16T05:50:00,mfh,60.31
2022-04-16T05:51:00,mfh,60.25
2022-04-16T05:52:00,mfh,60.88
2022-04-16T05:53:00,mfh,60.95
2022-04-16T05:54:00,mfh,60.75
2022-04-16T05:55:00,mfh,60.60
2022-04-16T05:56:00,mfh,59.29
2022-04-16T05:57:00,mfh,59.79
2022-04-16T05:58:00,mfh,59.19
2022-04-16T05:59:00,mfh,59.16
2022-04-16T06:00:00,mfh,60.38
2022-04-16T06:01:00,mfh,59.89
2022-04-16T06:02:00,mfh,60.36
2022-04-16T06:03:00,mfh,59.62
2022-04-16T06:04:00,mfh,59.74
2022-04-16T06:05:00,mfh,58.97
2022-04-16T06:06:00,mfh,59.05
2022-04-16T06:07:00,mfh,58.92
2022-04-16T06:08:00,mfh,59.27
2022-04-16T06:09:00,mfh,59.43
2022-04-16T06:10:00,mfh,59.52
2022-04-16T06:11:00,mfh,60.22
2022-04-16T06:12:00,mfh,59.57
2022-04-16T06:13:00,mfh,58.78
2022-04-16T06:14:00,mfh,58.56
2022-04-16T06:15:00,mfh,58.61
2022-04-16T06:16:00,mfh,58.66
2022-04-16T06:17:00,mfh,59.15
2022-04-16T06:18:00,mfh,59.83
2022-04-16T06:19:00,mfh,59.49
2022-04-16T06:20:00,mfh,59.42
2022-04-16T06:21:00,mfh,59.19
2022-04-16T06:22:00,mfh,58.66
2022-04-16T06:23:00,mfh,59.27
2022-04-16T06:24:00,mfh,58.60
2022-04-16T06:25:00,mfh,59.35
2022-04-16T06:26:00,mfh,59.18
2022-04-16T06:27:00,mfh,59.29
2022-04-16T06:28:00,mfh,59.53
2022-04-16T06:29:00,mfh,59.58
2022-04-16T06:30:00,mfh,58.82
2022-04-16T06:31:00,mfh,59.25
2022-04-16T06:32:00,mfh,59.30
2022-04-16T06:33:00,mfh,59.44
2022-04-16T06:34:00,mfh,59.84
2022-04-16T06:35:00,mfh,59.68
2022-04-16T06:36:00,mfh,59.81
2022-04-16T06:37:00,mfh,59.79
2022-04-16T06:38:00,mfh,59.19
2022-04-16T06:39:00,mfh,59.15
2022-04-16T06:40:00,mfh,58.87
2022-04-16T06:41:00,mfh,58.85
2022-04-16T06:42:00,mfh,59.58
2022-04-16T06:43:00,mfh,59.62
2022-04-16T06:44:00,mfh,59.52
2022-04-16T06:45:00,mfh,59.57
2022-04-16T06:46:00,mfh,59.66
2022-04-16T06:47:00,mfh,58.89
2022-04-16T06:48:00,mfh,59.87
2022-04-16T06:49:00,mfh,58.95
2022-04-16T06:50:00,mfh,58.95
2022-04-16T06:51:00,mfh,59.57
2022-04-16T06:52:00,mfh,59.47
2022-04-16T06:53:00,mfh,59.48
2022-04-16T06:54:00,mfh,59.72
2022-04-16T06:55:00,mfh,59.33
2022-04-16T06:56:00,mfh,59.18
2022-04-16T06:57:00,mfh,59.18
2022-04-16T06:58:00,mfh,59.19
2022-04-16T06:59:00,mfh,59.90
2022-04-16T07:00:00,mfh,59.75
2022-04-16T07:01:00,mfh,59.71
2022-04-16T07:02:00,mfh,59.76
2022-04-16T07:03:00,mfh,59.16
2022-04-16T07:04:00,mfh,59.07
2022-04-16T07:05:00,mfh,58.89
2022-04-16T07:06:00,mfh,58.77
2022-04-16T07:07:00,mfh,59.58
2022-04-16T07:08:00,mfh,59.41
2022-04-16T07:09:00,mfh,60.10
2022-04-16T07:10:00,mfh,59.41
2022-04-16T07:11:00,mfh,58.91
2022-04-16T07:12:00,mfh,58.76
2022-04-16T07:13:00,mfh,58.82
2022-04-16T07:14:00,mfh,58.84
2022-04-16T07:15:00,mfh,58.80
2022-04-16T07:16:00,mfh,59.33
2022-04-16T07:17:00,mfh,59.26
2022-04-16T07:18:00,mfh,59.22
2022-04-16T07:19:00,mfh,59.40
2022-04-16T07:20:00,mfh,58.63
2022-04-16T07:21:00,mfh,58.88
2022-04-16T07:22:00,mfh,59.03
2022-04-16T07:23:00,mfh,58.83
2022-04-16T07:24:00,mfh,59.40
2022-04-16T07:25:00,mfh,59.41
2022-04-16T07:26:00,mfh,59.51
2022-04-16T07:27:00,mfh,59.62
2022-04-16T07:28:00,mfh,59.90
2022-04-16T07:29:00,mfh,58.64
2022-04-16T07:30:00,mfh,59.14
2022-04-16T07:31:00,mfh,58.70
2022-04-16T07:32:00,mfh,59.35
2022-04-16T07:33:00,mfh,59.21
2022-04-16T07:34:00,mfh,59.22
2022-04-16T07:35:00,mfh,59.47
2022-04-16T07:36:00,mfh,59.58
2022-04-16T07:37:00,mfh,59.03
2022-04-16T07:38:00,mfh,58.81
2022-04-16T07:39:00,mfh,58.88
2022-04-16T07:40:00,mfh,58.85
2022-04-16T07:41:00,mfh,59.88
2022-04-16T07:42:00,mfh,60.85
2022-04-16T07:43:00,mfh,60.07
2022-04-16T07:44:00,mfh,59.95
2022-04-16T07:45:00,mfh,59.16
2022-04-16T07:46:00,mfh,59.59
2022-04-16T07:47:00,mfh,59.57
2022-04-16T07:48:00,mfh,59.16
2022-04-16T07:49:00,mfh,59.94
2022-04-16T07:50:00,mfh,59.69
2022-04-16T07:51:00,mfh,59.84
2022-04-16T07:52:00,mfh,59.87
2022-04-16T07:53:00,mfh,59.99
2022-04-16T07:54:00,mfh,59.85
2022-04-16T07:55:00,mfh,59.46
2022-04-16T07:56:00,mfh,59.47
2022-04-16T07:57:00,mfh,59.28
2022-04-16T07:58:00,mfh,59.92
2022-04-16T07:59:00,mfh,59.69
2022-04-16T08:00:00,mfh,59.69
2022-04-16T08:01:00,mfh,59.57
2022-04-16T08:02:00,mfh,58.91
2022-04-16T08:03:00,mfh,58.82
2022-04-16T08:04:00,mfh,59.26
2022-04-16T08:05:00,mfh,58.83
2022-04-16T08:06:00,mfh,59.42
2022-04-16T08:07:00,mfh,59.51
2022-04-16T08:08:00,mfh,59.52
2022-04-16T08:09:00,mfh,59.44
2022-04-16T08:10:00,mfh,58.82
2022-04-16T08:11:00,mfh,58.84
2022-04-16T08:12:00,mfh,58.82
2022-04-16T08:13:00,mfh,60.77
2022-04-16T08:14:00,mfh,61.15
2022-04-16T08:15:00,mfh,61.34
2022-04-16T08:16:00,mfh,61.26
2022-04-16T08:17:00,mfh,61.30
2022-04-16T08:18:00,mfh,60.72
2022-04-16T08:19:00,mfh,60.79
2022-04-16T08:20:00,mfh,60.80
2022-04-16T08:21:00,mfh,61.67
2022-04-16T08:22:00,mfh,61.85
2022-04-16T08:23:00,mfh,62.73
2022-04-16T08:24:00,mfh,62.81
2022-04-16T08:25:00,mfh,61.91
2022-04-16T08:26:00,mfh,61.51
2022-04-16T08:27:00,mfh,61.15
2022-04-16T08:28:00,mfh,60.75
2022-04-16T08:29:00,mfh,60.84
2022-04-16T08:30:00,mfh,61.01
2022-04-16T08:31:00,mfh,62.02
2022-04-16T08:32:00,mfh,61.93
2022-04-16T08:33:00,mfh,61.27
2022-04-16T08:34:00,mfh,68.48
2022-04-16T08:35:00,mfh,68.51
2022-04-16T08:36:00,mfh,69.05
2022-04-16T08:37:00,mfh,68.80
2022-04-16T08:38:00,mfh,69.12
2022-04-16T08:39:00,mfh,69.17
2022-04-16T08:40:00,mfh,85.41
2022-04-16T08:41:00,mfh,86.07
2022-04-16T08:42:00,mfh,85.95
2022-04-16T08:43:00,mfh,86.18
2022-04-16T08:44:00,mfh,85.44
2022-04-16T08:45:00,mfh,84.95
2022-04-16T08:46:00,mfh,84.73
2022-04-16T08:47:00,mfh,84.52
2022-04-16T08:48:00,mfh,84.66
2022-04-16T08:49:00,mfh,84.45
2022-04-16T08:50:00,mfh,84.39
2022-04-16T08:51:00,mfh,84.32
2022-04-16T08:52:00,mfh,83.90
2022-04-16T08:53:00,mfh,83.89
2022-04-16T08:54:00,mfh,83.79
2022-04-16T08:55:00,mfh,84.42
2022-04-16T08:56:00,mfh,84.36
2022-04-16T08:57:00,mfh,84.42
2022-04-16T08:58:00,mfh,87.77
2022-04-16T08:59:00,mfh,88.31
2022-04-16T09:00:00,mfh,88.36
2022-04-16T09:01:00,mfh,88.21
2022-04-16T09:02:00,mfh,88.48
2022-04-16T09:03:00,mfh,88.35
2022-04-16T09:04:00,mfh,88.60
2022-04-16T09:05:00,mfh,88.62
2022-04-16T09:06:00,mfh,88.27
2022-04-16T09:07:00,mfh,88.25
2022-04-16T09:08:00,mfh,88.18
2022-04-16T09:09:00,mfh,88.05
2022-04-16T09:10:00,mfh,88.00
2022-04-16T09:11:00,mfh,88.04
2022-04-16T09:12:00,mfh,88.07
2022-04-16T09:13:00,mfh,88.31
2022-04-16T09:14:00,mfh,88.23
2022-04-16T09:15:00,mfh,88.29
2022-04-16T09:16:00,mfh,88.41
2022-04-16T09:17:00,mfh,88.54
2022-04-16T09:18:00,mfh,88.34
2022-04-16T09:19:00,mfh,88.27
2022-04-16T09:20:00,mfh,88.26
2022-04-16T09:21:00,mfh,88.08
2022-04-16T09:22:00,mfh,88.22
2022-04-16T09:23:00,mfh,88.44
2022-04-16T09:24:00,mfh,88.32
2022-04-16T09:25:00,mfh,88.37
2022-04-16T09:26:00,mfh,88.23
2022-04-16T09:27:00,mfh,88.34
2022-04-16T09:28:00,mfh,88.22
2022-04-16T09:29:00,mfh,88.22
2022-04-16T09:30:00,mfh,88.47
2022-04-16T09:31:00,mfh,88.78
2022-04-16T09:32:00,mfh,88.85
2022-04-16T09:33:00,mfh,88.91
2022-04-16T09:34:00,mfh,88.63
2022-04-16T09:35:00,mfh,88.51
2022-04-16T09:36:00,mfh,88.68
2022-04-16T09:37:00,mfh,88.55
2022-04-16T09:38:00,mfh,88.98
2022-04-16T09:39:00,mfh,88.57
2022-04-16T09:40:00,mfh,88.76
2022-04-16T09:41:00,mfh,88.56
2022-04-16T09:42:00,mfh,88.52
2022-04-16T09:43:00,mfh,88.51
2022-04-16T09:44:00,mfh,88.48
2022-04-16T09:45:00,mfh,88.55
2022-04-16T09:46:00,mfh,88.46
2022-04-16T09:47:00,mfh,88.57
2022-04-16T09:48:00,mfh,88.59
2022-04-16T09:49:00,mfh,88.55
2022-04-16T09:50:00,mfh,88.38
2022-04-16T09:51:00,mfh,88.55
2022-04-16T09:52:00,mfh,88.55
2022-04-16T09:53:00,mfh,88.49
2022-04-16T09:54:00,mfh,88.33
2022-04-16T09:55:00,mfh,88.53
2022-04-16T09:56:00,mfh,88.44
2022-04-16T09:57:00,mfh,88.48
2022-04-16T09:58:00,mfh,88.37
2022-04-16T09:59:00,mfh,88.22
2022-04-16T10:00:00,mfh,88.52
2022-04-16T10:01:00,mfh,88.18
2022-04-16T10:02:00,mfh,88.46
2022-04-16T10:03:00,mfh,88.47
2022-04-16T10:04:00,mfh,88.63
2022-04-16T10:05:00,mfh,88.48
2022-04-16T10:06:00,mfh,88.57
2022-04-16T10:07:00,mfh,88.72
2022-04-16T10:08:00,mfh,88.58
2022-04-16T10:09:00,mfh,88.54
2022-04-16T10:10:00,mfh,88.48
2022-04-16T10:11:00,mfh,88.60
2022-04-16T10:12:00,mfh,88.70
2022-04-16T10:13:00,mfh,88.52
2022-04-16T10:14:00,mfh,88.41
2022-04-16T10:15:00,mfh,88.48
2022-04-16T10:16:00,mfh,88.56
2022-04-16T10:17:00,mfh,88.44
2022-04-16T10:18:00,mfh,88.19
2022-04-16T10:19:00,mfh,88.26
2022-04-16T10:20:00,mfh,88.51
2022-04-16T10:21:00,mfh,88.53
2022-04-16T10:22:00,mfh,88.68
2022-04-16T10:23:00,mfh,88.73
2022-04-16T10:24:00,mfh,88.73
2022-04-16T10:25:00,mfh,88.55
2022-04-16T10:26:00,mfh,88.66
2022-04-16T10:27:00,mfh,88.38
2022-04-16T10:28:00,mfh,88.07
2022-04-16T10:29:00,mfh,88.21
2022-04-16T10:30:00,mfh,88.60
2022-04-16T10:31:00,mfh,88.23
2022-04-16T10:32:00,mfh,88.41
2022-04-16T10:33:00,mfh,87.93
2022-04-16T10:34:00,mfh,88.02
2022-04-16T10:35:00,mfh,88.03
2022-04-16T10:36:00,mfh,88.07
2022-04-16T10:37:00,mfh,88.86
2022-04-16T10:38:00,mfh,88.87
2022-04-16T10:39:00,mfh,88.69
2022-04-16T10:40:00,mfh,88.59
2022-04-16T10:41:00,mfh,88.53
2022-04-16T10:42:00,mfh,88.45
2022-04-16T10:43:00,mfh,88.53
2022-04-16T10:44:00,mfh,88.16
2022-04-16T10:45:00,mfh,88.42
2022-04-16T10:46:00,mfh,88.40
2022-04-16T10:47:00,mfh,88.58
2022-04-16T10:48:00,mfh,88.45
2022-04-16T10:49:00,mfh,88.57
2022-04-16T10:50:00,mfh,88.34
2022-04-16T10:51:00,mfh,88.22
2022-04-16T10:52:00,mfh,88.19
2022-04-16T10:53:00,mfh,88.24
2022-04-16T10:54:00,mfh,88.35
2022-04-16T10:55:00,mfh,88.30
2022-04-16T10:56:00,mfh,88.54
2022-04-16T10:57:00,mfh,88.35
2022-04-16T10:58:00,mfh,88.43
2022-04-16T10:59:00,mfh,88.45
2022-04-16T11:00:00,mfh,88.46
2022-04-16T11:01:00,mfh,88.46
2022-04-16T11:02:00,mfh,88.51
2022-04-16T11:03:00,mfh,88.90
2022-04-16T11:04:00,mfh,88.40
2022-04-16T11:05:00,mfh,88.38
2022-04-16T11:06:00,mfh,88.33
2022-04-16T11:07:00,mfh,88.19
2022-04-16T11:08:00,mfh,88.36
2022-04-16T11:09:00,mfh,88.29
2022-04-16T11:10:00,mfh,88.28
2022-04-16T11:11:00,mfh,88.42
2022-04-16T11:12:00,mfh,88.36
2022-04-16T11:13:00,mfh,88.34
2022-04-16T11:14:00,mfh,88.70
2022-04-16T11:15:00,mfh,88.38
2022-04-16T11:16:00,mfh,88.17
2022-04-16T11:17:00,mfh,88.17
2022-04-16T11:18:00,mfh,88.22
2022-04-16T11:19:00,mfh,88.35
2022-04-16T11:20:00,mfh,88.57
2022-04-16T11:21:00,mfh,88.37
2022-04-16T11:22:00,mfh,88.41
2022-04-16T11:23:00,mfh,88.26
2022-04-16T11:24:00,mfh,88.65
2022-04-16T11:25:00,mfh,88.44
2022-04-16T11:26:00,mfh,88.56
2022-04-16T11:27:00,mfh,88.81
2022-04-16T11:28:00,mfh,88.37
2022-04-16T11:29:00,mfh,88.47
2022-04-16T11:30:00,mfh,88.38
2022-04-16T11:31:00,mfh,88.34
2022-04-16T11:32:00,mfh,88.22
2022-04-16T11:33:00,mfh,88.36
2022-04-16T11:34:00,mfh,88.19
2022-04-16T11:35:00,mfh,88.45
2022-04-16T11:36:00,mfh,88.56
2022-04-16T11:37:00,mfh,88.65
2022-04-16T11:38:00,mfh,88.63
2022-04-16T11:39:00,mfh,88.68
2022-04-16T11:40:00,mfh,88.43
2022-04-16T11:41:00,mfh,88.19
2022-04-16T11:42:00,mfh,88.25
2022-04-16T11:43:00,mfh,88.31
2022-04-16T11:44:00,mfh,88.39
2022-04-16T11:45:00,mfh,88.41
2022-04-16T11:46:00,mfh,88.75
2022-04-16T11:47:00,mfh,88.59
2022-04-16T11:48:00,mfh,88.62
2022-04-16T11:49:00,mfh,88.65
2022-04-16T11:50:00,mfh,88.66
2022-04-16T11:51:00,mfh,88.70
2022-04-16T11:52:00,mfh,88.63
2022-04-16T11:53:00,mfh,88.78
2022-04-16T11:54:00,mfh,88.64
2022-04-16T11:55:00,mfh,88.69
2022-04-16T11:56:00,mfh,88.95
2022-04-16T11:57:00,mfh,89.02
2022-04-16T11:58:00,mfh,88.61
2022-04-16T11:59:00,mfh,88.59
2022-04-16T12:00:00,mfh,88.63
2022-04-16T12:01:00,mfh,88.69
2022-04-16T12:02:00,mfh,88.77
2022-04-16T12:03:00,mfh,88.75
2022-04-16T12:04:00,mfh,88.75
2022-04-16T12:05:00,mfh,88.56
2022-04-16T12:06:00,mfh,88.71
2022-04-16T12:07:00,mfh,88.70
2022-04-16T12:08:00,mfh,88.73
2022-04-16T12:09:00,mfh,88.85
2022-04-16T12:10:00,mfh,88.80
2022-04-16T12:11:00,mfh,88.90
2022-04-16T12:12:00,mfh,88.85
2022-04-16T12:13:00,mfh,88.78
2022-04-16T12:14:00,mfh,88.64
2022-04-16T12:15:00,mfh,88.34
2022-04-16T12:16:00,mfh,88.56
2022-04-16T12:17:00,mfh,88.35
2022-04-16T12:18:00,mfh,88.60
2022-04-16T12:19:00,mfh,88.60
2022-04-16T12:20:00,mfh,88.65
2022-04-16T12:21:00,mfh,89.02
2022-04-16T12:22:00,mfh,88.60
2022-04-16T12:23:00,mfh,88.59
2022-04-16T12:24:00,mfh,88.60
2022-04-16T12:25:00,mfh,88.61
2022-04-16T12:26:00,mfh,88.78
2022-04-16T12:27:00,mfh,88.64
2022-04-16T12:28:00,mfh,88.98
2022-04-16T12:29:00,mfh,88.41
2022-04-16T12:30:00,mfh,88.53
2022-04-16T12:31:00,mfh,88.26
2022-04-16T12:32:00,mfh,88.35
2022-04-16T12:33:00,mfh,88.14
2022-04-16T12:34:00,mfh,88.09
2022-04-16T12:35:00,mfh,88.15
2022-04-16T12:36:00,mfh,88.20
2022-04-16T12:37:00,mfh,88.32
2022-04-16T12:38:00,mfh,88.31
2022-04-16T12:39:00,mfh,88.11
2022-04-16T12:40:00,mfh,88.12
2022-04-16T12:41:00,mfh,88.03
2022-04-16T12:42:00,mfh,88.03
2022-04-16T12:43:00,mfh,88.37
2022-04-16T12:44:00,mfh,88.44
2022-04-16T12:45:00,mfh,88.23
2022-04-16T12:46:00,mfh,88.59
2022-04-16T12:47:00,mfh,88.57
2022-04-16T12:48:00,mfh,88.84
2022-04-16T12:49:00,mfh,88.92
2022-04-16T12:50:00,mfh,88.89
2022-04-16T12:51:00,mfh,88.83
2022-04-16T12:52:00,mfh,88.77
2022-04-16T12:53:00,mfh,88.56
2022-04-16T12:54:00,mfh,88.51
2022-04-16T12:55:00,mfh,88.54
2022-04-16T12:56:00,mfh,88.48
2022-04-16T12:57:00,mfh,88.55
2022-04-16T12:58:00,mfh,88.04
2022-04-16T12:59:00,mfh,88.00
2022-04-16T13:00:00,mfh,88.05
2022-04-16T13:01:00,mfh,88.10
2022-04-16T13:02:00,mfh,87.97
2022-04-16T13:03:00,mfh,87.86
2022-04-16T13:04:00,mfh,87.86
2022-04-16T13:05:00,mfh,88.10
2022-04-16T13:06:00,mfh,88.06
2022-04-16T13:07:00,mfh,88.12
2022-04-16T13:08:00,mfh,88.10
2022-04-16T13:09:00,mfh,88.00
2022-04-16T13:10:00,mfh,87.86
2022-04-16T13:11:00,mfh,87.87
2022-04-16T13:12:00,mfh,87.78
2022-04-16T13:13:00,mfh,88.10
2022-04-16T13:14:00,mfh,87.99
2022-04-16T13:15:00,mfh,88.16
2022-04-16T13:16:00,mfh,87.97
2022-04-16T13:17:00,mfh,87.99
2022-04-16T13:18:00,mfh,88.01